Weather History for Washington, PA

Change the Weather History Date:

Saturday, May 25, 2013

  Actual Average Record
Temperature  
Mean Temperature 45 °F -  
Max Temperature 60 °F 68 °F 84 °F (2012)
Min Temperature 30 °F 47 °F 30 °F (2013)
Degree Days  
Heating Degree Days 20    
Moisture  
Dew Point 33 °F    
Average Humidity 66    
Maximum Humidity 100    
Minimum Humidity 36    
Precipitation  
Precipitation 0.00 in - - ()
Sea Level Pressure  
Sea Level Pressure 30.29 in    
Wind  
Wind Speed 3 mph (SW)    
Max Wind Speed 15 mph    
Max Gust Speed 22 mph    
Visibility 9 miles    
Events      
Averages and records for this station are not official NWS values.
T = Trace of Precipitation, MM = Missing Value Source: NWS Daily Summary

Daily Weather History Graph

Daily Weather History Graph

Search for Another Location

Airport:

Trip Planner

Search our weather history database for the weather conditions in past years. The results will help you decide how hot, cold, wet, or windy it might be!

Date:

Astronomy

May. 25, 2013 Rise Set
Actual Time 5:57 AM EDT 8:39 PM EDT
Civil Twilight 5:25 AM EDT 9:10 PM EDT
Nautical Twilight 4:46 AM EDT 9:50 PM EDT
Astronomical Twilight 4:01 AM EDT 10:35 PM EDT
Moon 9:25 PM EDT (5/25) 6:22 AM EDT (5/25)
Length of Visible Light 15h 45m
Length of Day
14h 41m
Full, 100% of the Moon is Illuminated
May 25
Full
May 31
Last Quarter
Jun 8
New
Jun 16
First Quarter
Jun 23
Full

Hourly Weather History & Observations

Time (EDT) Temp. Windchill Dew Point Humidity Pressure Visibility Wind Dir Wind Speed Gust Speed Precip Events Conditions
12:15 AM 35.6 °F - 33.8 °F 93% 30.30 in 10.0 mi Calm Calm - N/A   Clear
12:35 AM 33.8 °F - 32.0 °F 93% 30.30 in 10.0 mi Calm Calm - N/A   Clear
12:55 AM 33.8 °F - 30.2 °F 87% 30.30 in 10.0 mi Calm Calm - N/A   Clear
1:15 AM 33.8 °F - 30.2 °F 87% 30.29 in 10.0 mi Calm Calm - N/A   Clear
1:35 AM 32.0 °F - 30.2 °F 93% 30.29 in 7.0 mi Calm Calm - N/A   Clear
1:55 AM 30.2 °F - 30.2 °F 100% 30.30 in 10.0 mi Calm Calm - N/A   Clear
2:15 AM 32.0 °F - 28.4 °F 87% 30.30 in 10.0 mi Calm Calm - N/A   Clear
2:35 AM 32.0 °F - 30.2 °F 93% 30.30 in 10.0 mi Calm Calm - N/A   Clear
2:55 AM 32.0 °F - 30.2 °F 93% 30.30 in 10.0 mi Calm Calm - N/A   Clear
3:15 AM 32.0 °F - 30.2 °F 93% 30.30 in 10.0 mi Calm Calm - N/A   Clear
3:35 AM 30.2 °F - 28.4 °F 93% 30.30 in 7.0 mi Calm Calm - N/A   Clear
3:55 AM 32.0 °F - 30.2 °F 93% 30.30 in 10.0 mi Calm Calm - N/A   Clear
4:15 AM 30.2 °F - 30.2 °F 100% 30.30 in 10.0 mi Calm Calm - N/A   Clear
4:35 AM 30.2 °F - 28.4 °F 93% 30.29 in 7.0 mi Calm Calm - N/A   Clear
4:55 AM 30.2 °F 26.7 °F 28.4 °F 93% 30.30 in 5.0 mi South 3.5 mph - N/A   Clear
5:15 AM 30.2 °F - 28.4 °F 93% 30.30 in 5.0 mi Calm Calm - N/A   Clear
5:35 AM 30.2 °F - 28.4 °F 93% 30.31 in 8.0 mi Calm Calm - N/A   Clear
5:55 AM 30.2 °F - 28.4 °F 93% 30.32 in 7.0 mi Calm Calm - N/A   Clear
6:15 AM 30.2 °F 26.7 °F 28.4 °F 93% 30.33 in 6.0 mi South 3.5 mph - N/A   Clear
6:35 AM 30.2 °F - 30.2 °F 100% 30.32 in 6.0 mi Calm Calm - N/A   Clear
6:55 AM 30.2 °F - 28.4 °F 93% 30.32 in 5.0 mi Calm Calm - N/A   Partly Cloudy
7:15 AM 33.8 °F - 32.0 °F 93% 30.33 in 5.0 mi Calm Calm - N/A   Partly Cloudy
7:35 AM 33.8 °F 28.6 °F 32.0 °F 93% 30.33 in 7.0 mi SSE 5.8 mph - N/A   Clear
7:55 AM 35.6 °F 31.7 °F 33.8 °F 93% 30.32 in 9.0 mi South 4.6 mph - N/A   Clear
8:15 AM 37.4 °F 34.9 °F 33.8 °F 87% 30.32 in 10.0 mi South 3.5 mph - N/A   Clear
8:35 AM 39.2 °F 37.0 °F 35.6 °F 87% 30.32 in 10.0 mi WSW 3.5 mph - N/A   Clear
8:55 AM 42.8 °F 41.1 °F 35.6 °F 76% 30.31 in 10.0 mi WSW 3.5 mph - N/A   Clear
9:15 AM 44.6 °F 40.7 °F 35.6 °F 71% 30.32 in 10.0 mi WSW 6.9 mph - N/A   Clear
9:35 AM 44.6 °F 42.2 °F 35.6 °F 71% 30.33 in 10.0 mi SW 4.6 mph - N/A   Partly Cloudy
9:55 AM 46.4 °F 42.4 °F 37.4 °F 71% 30.34 in 10.0 mi WSW 8.1 mph - N/A   Partly Cloudy
10:15 AM 48.2 °F - 37.4 °F 66% 30.34 in 10.0 mi West 9.2 mph - N/A   Partly Cloudy
10:35 AM 48.2 °F - 35.6 °F 62% 30.34 in 10.0 mi West 6.9 mph - N/A   Scattered Clouds
10:55 AM 48.2 °F - 37.4 °F 66% 30.35 in 10.0 mi South 11.5 mph 16.1 mph N/A   Mostly Cloudy
11:15 AM 51.8 °F - 33.8 °F 50% 30.34 in 10.0 mi SW 6.9 mph - N/A   Scattered Clouds
11:35 AM 51.8 °F - 35.6 °F 54% 30.33 in 10.0 mi SW 4.6 mph - N/A   Partly Cloudy
11:55 AM 53.6 °F - 37.4 °F 54% 30.33 in 10.0 mi SW 11.5 mph 17.3 mph N/A   Scattered Clouds
12:15 PM 53.6 °F - 37.4 °F 54% 30.33 in 10.0 mi West 9.2 mph 19.6 mph N/A   Scattered Clouds
12:35 PM 53.6 °F - 35.6 °F 51% 30.32 in 10.0 mi WSW 12.7 mph 17.3 mph N/A   Scattered Clouds
12:55 PM 55.4 °F - 35.6 °F 47% 30.31 in 10.0 mi WSW 12.7 mph 18.4 mph N/A   Mostly Cloudy
1:15 PM 55.4 °F - 35.6 °F 47% 30.31 in 10.0 mi SW 5.8 mph 19.6 mph N/A   Mostly Cloudy
1:35 PM 55.4 °F - 35.6 °F 47% 30.30 in 10.0 mi SW 9.2 mph - N/A   Scattered Clouds
1:55 PM 57.2 °F - 35.6 °F 44% 30.29 in 10.0 mi WSW 9.2 mph 16.1 mph N/A   Mostly Cloudy
2:15 PM 57.2 °F - 35.6 °F 44% 30.29 in 10.0 mi SSW 10.4 mph - N/A   Scattered Clouds
2:35 PM 59.0 °F - 35.6 °F 42% 30.28 in 10.0 mi WSW 11.5 mph 19.6 mph N/A   Partly Cloudy
2:55 PM 59.0 °F - 35.6 °F 42% 30.27 in 10.0 mi West 10.4 mph 18.4 mph N/A   Scattered Clouds
3:15 PM 59.0 °F - 35.6 °F 42% 30.27 in 10.0 mi WSW 9.2 mph 16.1 mph N/A   Scattered Clouds
3:35 PM 60.8 °F - 37.4 °F 42% 30.27 in 10.0 mi SSW 8.1 mph 20.7 mph N/A   Scattered Clouds
3:55 PM 60.8 °F - 37.4 °F 42% 30.27 in 10.0 mi SW 10.4 mph 16.1 mph N/A   Mostly Cloudy
4:15 PM 60.8 °F - 35.6 °F 39% 30.27 in 10.0 mi WSW 11.5 mph 20.7 mph N/A   Mostly Cloudy
4:35 PM 60.8 °F - 35.6 °F 39% 30.26 in 10.0 mi SW 10.4 mph 20.7 mph N/A   Mostly Cloudy
4:55 PM 60.8 °F - 35.6 °F 39% 30.26 in 10.0 mi WSW 12.7 mph 18.4 mph N/A   Scattered Clouds
5:15 PM 60.8 °F - 33.8 °F 36% 30.25 in 10.0 mi WSW 10.4 mph 21.9 mph N/A   Partly Cloudy
5:35 PM 60.8 °F - 33.8 °F 36% 30.25 in 10.0 mi SW 11.5 mph 21.9 mph N/A   Clear
5:55 PM 60.8 °F - 33.8 °F 36% 30.25 in 10.0 mi SW 12.7 mph 20.7 mph N/A   Clear
6:15 PM 60.8 °F - 33.8 °F 36% 30.25 in 10.0 mi SW 9.2 mph 16.1 mph N/A   Clear
6:35 PM 59.0 °F - 33.8 °F 39% 30.25 in 10.0 mi SW 15.0 mph 18.4 mph N/A   Clear
6:55 PM 57.2 °F - 32.0 °F 38% 30.25 in 10.0 mi WSW 9.2 mph - N/A   Clear
7:15 PM 57.2 °F - 32.0 °F 38% 30.24 in 10.0 mi WSW 4.6 mph - N/A   Clear
7:35 PM 55.4 °F - 30.2 °F 38% 30.25 in 10.0 mi WSW 8.1 mph - N/A   Clear
7:55 PM 55.4 °F - 30.2 °F 38% 30.25 in 10.0 mi WSW 8.1 mph - N/A   Clear
8:15 PM 53.6 °F - 30.2 °F 41% 30.25 in 10.0 mi WSW 3.5 mph - N/A   Clear
8:35 PM 53.6 °F - 30.2 °F 41% 30.25 in 10.0 mi SW 3.5 mph - N/A   Clear
8:55 PM 51.8 °F - 30.2 °F 44% 30.25 in 10.0 mi SW 3.5 mph - N/A   Clear
9:15 PM 50.0 °F - 32.0 °F 50% 30.25 in 10.0 mi SW 3.5 mph - N/A   Clear
9:35 PM 46.4 °F 45.2 °F 33.8 °F 62% 30.25 in 10.0 mi WSW 3.5 mph - N/A   Clear
9:55 PM 44.6 °F 43.1 °F 35.6 °F 71% 30.26 in 10.0 mi WSW 3.5 mph - N/A   Clear
10:15 PM 46.4 °F 44.3 °F 33.8 °F 62% 30.26 in 10.0 mi WSW 4.6 mph - N/A   Clear
10:35 PM 46.4 °F 44.3 °F 33.8 °F 62% 30.26 in 10.0 mi West 4.6 mph - N/A   Clear
10:55 PM 44.6 °F 43.1 °F 33.8 °F 66% 30.26 in 10.0 mi WSW 3.5 mph - N/A   Clear
11:15 PM 44.6 °F 42.2 °F 33.8 °F 66% 30.26 in 10.0 mi WSW 4.6 mph - N/A   Clear
11:35 PM 44.6 °F - 32.0 °F 61% 30.27 in 10.0 mi Calm Calm - N/A   Clear
11:55 PM 41.0 °F - 35.6 °F 81% 30.26 in 10.0 mi Calm Calm - N/A   Clear